STARLINK-1843 (47133 NORAD) Tracking and Keplerian Element Data

This shows tracking and keplerian element data for the satellite.

Feedback or suggestion? Click here.




ElementValue
Catalog47133
NameSTARLINK-1843
Epoch Orbit975
Epoch Day21.16668981
Epoch Year2021
RAAN72.9043
Inclination53.0552
Eccentricity0.0001972
Argument of Perigee355.4235
Mean Anonmoly68.3597
Mean Motion15.62757725
Decay Rate0.00017455
L11 47133U 20088M 21021.16668981 .00017455 00000-0 19602-3 0 9990
L22 47133 53.0552 72.9043 0001972 355.4235 68.3597 15.62757725 9757

Live tracking and technical data element details for STARLINK-1843 (NORAD 47133). STARLINK-1843 can be tracked NOW for your location showing map with azimuth and elevation plus other details from your city location.

Track the satellite on the map from your city or location and see movement details for azimuth, elevation, latitude, longitude, range, height, and movement on the map or in text.







IsCatalogInMostPopularTable: catalog: 47133, numindb: 14
Update: records affected: 1



GetName: 47133 STARLINK-1843

Hit Count: updated at: Sat, 23 Jan 2021 16:18:46 GMT